{"data":{"norad_id":66183,"epoch":"2026-09-20T13:46:57.605376Z","epoch_age_seconds":93968,"freshness":"FRESH","line1":"1 66183U 25243G   26263.57427784  .00007422  00000+0  23044-3 0  9993","line2":"2 66183  53.1581  57.0441 0000591 102.4752 257.6317 15.34417743 50539","mean_motion":15.34417743,"eccentricity":5.91e-5,"inclination_deg":53.1581,"raan_deg":57.0441,"arg_perigee_deg":102.4752,"mean_anomaly_deg":257.6317,"bstar":0.00023044,"rev_number":5053,"period_min":93.846672887437,"perigee_km":462.24621423858,"apogee_km":463.05479532164,"semimajor_km":6840.7875047801,"source":"CELESTRAK","updated_at":"2026-09-21T09:00:35.834471Z"}}